Location: Chinna Viriv?da
(16.5281°N, 81.0493°E)
Time: 22:23:28
(UTC+00:00)

Cosmos 2278 - Pass Details

Date: 14 April 2026
Orbit: 836 x 852 km, 71.1° (Epoch: 9 May)

Event Time Altitude Azimuth Distance (km) Brightness Sun altitude
Rises 23:25:53 0° 337° (NNW) 3,411 6.8 -13.7°
Reaches altitude 10° 23:28:21 10° 334° (NNW) 2,475 6.0 -13.1°
Maximum altitude 23:33:56 59° 255° (WSW) 974 3.7 -11.8°
Drops below altitude 10° 23:39:30 10° 177° (S) 2,468 6.0 -10.5°
Sets 23:41:59 0° 173° (S) 3,401 6.8 -9.9°
